Regional Weather Roundup
Issued by NWS

Home | Current Version | Previous Version | Graphics & Text | Print | Product List | Glossary On
Versions: 1 2 3 4 5 6 7 8 9 10 11 12 13 14 15 16 17 18 19 20 21 22 23 24 25 26 27 28 29 30 31 32 33 34 35 36 37 38 39 40 41 42 43 44 45 46 47 48 49 50
000
ASUS45 KBOU 190207
RWRCO

WEATHER ROUNDUP FOR COLORADO
NATIONAL WEATHER SERVICE DENVER/BOULDER CO
800 PM MDT SAT APR 18 2015

NOTE: "FAIR" INDICATES FEW OR NO CLOUDS BELOW 12000 FEET WITH NO
SIGNIFICANT WEATHER AND/OR OBSTRUCTIONS TO VISIBILITY.

COZ001>005-013-030-031-190300-
...NORTHWEST COLORADO...

CITY           SKY/WX    TMP DP  RH WIND       PRES   REMARKS
CRAIG          CLOUDY    36  32  85 NW3       30.04S
HAYDEN         CLOUDY    34  30  86 N6        30.02R WCI  29
MEEKER         CLOUDY    38  32  79 NW3       30.04S
MOUNT WERNER   NOT AVBL
STEAMBOAT SPGS CLOUDY    32  32  99 CALM      30.02R
WALDEN         CLOUDY    30  28  93 NW8       30.00S WCI  23
$$

COZ006>008-011-190300-
...WEST CENTRAL VALLEYS...

CITY           SKY/WX    TMP DP  RH WIND       PRES   REMARKS
GRAND JUNCTION MOCLDY    42  38  85 S10       30.02S
MONTROSE       MOCLDY    41  37  86 SE6       30.06S
EAGLE          CLOUDY    37  36  93 W6        30.03S
RIFLE          CLOUDY    35  33  92 CALM      30.04R
DELTA          CLOUDY    42  38  85 NE3       30.06R
NUCLA          CLOUDY    46  37  71 E12       30.07R
$$

COZ017>023-064>068-190300-
...SOUTHWEST COLORADO...

CITY           SKY/WX    TMP DP  RH WIND       PRES   REMARKS
DURANGO        PTCLDY    48  24  39 N7        29.96R
CORTEZ         CLEAR     52  32  46 N6        29.98R
PAGOSA SPRINGS MOCLDY    41  31  68 CALM      29.97R
TELLURIDE      NOT AVBL
WOLF CREEK PAS LGT SNOW  21  19  93 N22G36    30.05F VSB 1   WCI   5
$$

COZ009-010-012-014-032>034-037-058>063-190300-
...CENTRAL COLORADO...

CITY           SKY/WX    TMP DP  RH WIND       PRES   REMARKS
ASPEN          FLURRIES  31  29  92 N3        30.01R
BUENA VISTA    MOCLDY    37  22  53 NW9G16    29.94R
COPPER MTN     NOT AVBL
BERTHOUD PASS  CLOUDY    16   9  73 N17       30.01R WCI   0
COTTONWOOD PAS MOCLDY    34  18  51 W18G26    29.96R WCI  23
GUNNISON       MOCLDY    37  27  65 CALM      30.01S
KREMMLING      CLOUDY    37  28  70 NW7       30.00R
LEADVILLE      CLOUDY    26  20  77 NW10      29.97R WCI  16
MONARCH PASS   CLOUDY    21  18  86 MISG      30.10R
SALIDA         MOCLDY    41  27  57 N5        30.00R
SUNLIGHT       SNOW     N/A N/A N/A N7        30.11R VSB<1/4
WILKERSON PASS CLOUDY    23  21  93 N6        30.00R WCI  16
$$

COZ069>075-190300-
...SAN LUIS VALLEY/SANGRE DE CRISTO MOUNTAINS...

CITY           SKY/WX    TMP DP  RH WIND       PRES   REMARKS
ALAMOSA        MOCLDY    37  32  82 SW8       29.92R
LA VETA PASS   FOG       27  27 100 CALM      29.95S VSB 1/2
SAGUACHE       MOCLDY    37  27  65 NW14G24   29.94R
$$

COZ035-036-038>040-190300-
...NORTHERN COLORADO FRONT RANGE...

CITY           SKY/WX    TMP DP  RH WIND       PRES   REMARKS
DENVER INTL AP MOCLDY    45  34  65 NW13      29.91R
DMNS CITY PARK   N/A     44  34  68 N7G14     29.92S
AURORA         MOCLDY    43  35  72 NW10      29.92R
FRONT RANGE AP MOCLDY    45  37  76 NW12      29.91R
ERIE MUNI ARPT CLOUDY    43  36  76 NW3       29.93R
BOULDER MUN AP CLOUDY    43  32  65 NW5       29.93R
CENTENNIAL     TSTM      38  33  82 NW15G28   29.93R FOG
BROOMFIELD     PTCLDY    41  36  81 NW8       29.93R
FORT COLLINS   PTCLDY    45  30  57 NW17      29.95R
LONGMONT       PTCLDY    46  37  70 N3        29.95R
$$

COZ041-046-047-076>085-087-088-190300-
...PIKES PEAK/PALMER DIVIDE AND SOUTHERN FOOTHILLS...

CITY           SKY/WX    TMP DP  RH WIND       PRES   REMARKS
COLO. SPRINGS  LGT RAIN  38  35  89 W17       29.92R
A. F. ACADEMY  NOT AVBL
ELLICOTT       CLOUDY   N/A N/A N/A N8        29.88R
FALCON         CLOUDY    37  31  78 NW9       29.92R
FORT CARSON    RAIN      39  35  85 NW16G33   29.92R
LIMON          CLOUDY    42  34  73 N8        29.85R
MONUMENT HILL  MOCLDY    32  32 100 W15       29.91S WCI  22
TRINIDAD       CLOUDY    43  33  68 W8        29.89R
$$

COZ042>045-048>051-090-091-190300-
...NORTHEAST COLORADO...

CITY           SKY/WX    TMP DP  RH WIND       PRES   REMARKS
GREELEY ARPT   MOCLDY    45  34  65 N15       29.93R
AKRON          CLOUDY    43  40  89 N14       29.87R
BURLINGTON     CLOUDY    47  40  76 N9        29.82R
WRAY           CLOUDY    49  42  76 NW14      29.83R
STERLING       CLOUDY    46  41  81 N8        29.87R
HOLYOKE        CLOUDY    48  41  76 NW15      29.84R
FORT MORGAN    MOCLDY    46  37  73 N16       29.89R
$$

COZ086-089-092>099-190300-
...SOUTHEAST COLORADO...

CITY           SKY/WX    TMP DP  RH WIND       PRES   REMARKS
PUEBLO         MOCLDY    47  32  56 N12       29.86R
LA JUNTA       PTCLDY    48  30  49 W9        29.83R
LAMAR          CLOUDY    50  37  61 W7        29.80R
SPRINGFIELD      N/A     43  38  82 SW6       29.84R
$$



USA.gov is the U.S. government's official web portal to all federal, state and local government web resources and services.